Time,TemperatureF,DewpointF,PressureIn,WindDirection,WindDirectionDegrees,WindSpeedMPH,WindSpeedGustMPH,Humidity,HourlyPrecipIn,Conditions,Clouds,dailyrainin,SoftwareType,DateUTC
2013-09-23 00:00:00,59.0,-99.9,-100.00,SSE,151,4.0,7.0,-999,0.00,,,0.00,,2013-09-23 05:00:00,
2013-09-23 00:43:00,59.0,-99.9,-100.00,SSE,151,4.0,7.0,-999,0.00,,,0.00,,2013-09-23 05:43:00,
2013-09-23 00:53:00,59.0,-99.9,-100.00,SSE,151,4.0,7.0,-999,0.00,,,0.00,,2013-09-23 05:53:00,
2013-09-23 01:00:00,57.0,-99.9,-100.00,SSE,148,6.0,9.0,-999,0.00,,,0.00,,2013-09-23 06:00:00,
2013-09-23 01:42:00,57.0,-99.9,-100.00,SSE,148,6.0,9.0,-999,0.00,,,0.00,,2013-09-23 06:42:00,
2013-09-23 01:52:00,57.0,-99.9,-100.00,SSE,148,6.0,9.0,-999,0.00,,,0.00,,2013-09-23 06:52:00,
2013-09-23 02:00:00,55.0,-99.9,-100.00,SSE,150,5.0,7.0,-999,0.00,,,0.00,,2013-09-23 07:00:00,
2013-09-23 02:42:00,55.0,-99.9,-100.00,SSE,150,5.0,7.0,-999,0.00,,,0.00,,2013-09-23 07:42:00,
2013-09-23 02:52:00,55.0,-99.9,-100.00,SSE,150,5.0,7.0,-999,0.00,,,0.00,,2013-09-23 07:52:00,
2013-09-23 03:00:00,54.0,-99.9,-100.00,SSE,150,5.0,7.0,-999,0.00,,,0.00,,2013-09-23 08:00:00,
2013-09-23 03:42:00,54.0,-99.9,-100.00,SSE,150,5.0,7.0,-999,0.00,,,0.00,,2013-09-23 08:42:00,
2013-09-23 03:52:00,54.0,-99.9,-100.00,SSE,150,5.0,7.0,-999,0.00,,,0.00,,2013-09-23 08:52:00,
2013-09-23 04:00:00,53.0,-99.9,-100.00,SSE,153,5.0,8.0,-999,0.00,,,0.00,,2013-09-23 09:00:00,
2013-09-23 04:53:00,53.0,-99.9,-100.00,SSE,153,5.0,8.0,-999,0.00,,,0.00,,2013-09-23 09:53:00,
2013-09-23 05:00:00,53.0,-99.9,-100.00,SSE,153,5.0,8.0,-999,0.00,,,0.00,,2013-09-23 10:00:00,
2013-09-23 05:43:00,53.0,-99.9,-100.00,SSE,153,5.0,8.0,-999,0.00,,,0.00,,2013-09-23 10:43:00,
2013-09-23 05:53:00,53.0,-99.9,-100.00,SSE,153,5.0,8.0,-999,0.00,,,0.00,,2013-09-23 10:53:00,
2013-09-23 06:00:00,52.0,-99.9,-100.00,SSE,151,5.0,8.0,-999,0.00,,,0.00,,2013-09-23 11:00:00,
2013-09-23 06:42:00,52.0,-99.9,-100.00,SSE,151,5.0,8.0,-999,0.00,,,0.00,,2013-09-23 11:42:00,
2013-09-23 06:52:00,52.0,-99.9,-100.00,SSE,151,5.0,8.0,-999,0.00,,,0.00,,2013-09-23 11:52:00,
2013-09-23 07:00:00,50.0,-99.9,-100.00,SE,142,5.0,7.0,-999,0.00,,,0.00,,2013-09-23 12:00:00,
2013-09-23 07:42:00,50.0,-99.9,-100.00,SE,142,5.0,7.0,-999,0.00,,,0.00,,2013-09-23 12:42:00,
2013-09-23 07:52:00,50.0,-99.9,-100.00,SE,142,5.0,7.0,-999,0.00,,,0.00,,2013-09-23 12:52:00,
2013-09-23 08:00:00,52.0,-99.9,-100.00,SSE,150,6.0,9.0,-999,0.00,,,0.00,,2013-09-23 13:00:00,
2013-09-23 08:42:00,52.0,-99.9,-100.00,SSE,150,6.0,9.0,-999,0.00,,,0.00,,2013-09-23 13:42:00,
2013-09-23 08:52:00,52.0,-99.9,-100.00,SSE,150,6.0,9.0,-999,0.00,,,0.00,,2013-09-23 13:52:00,
2013-09-23 09:00:00,56.0,-99.9,-100.00,SE,145,6.0,12.0,-999,0.00,,,0.00,,2013-09-23 14:00:00,
2013-09-23 09:43:00,56.0,-99.9,-100.00,SE,145,6.0,12.0,-999,0.00,,,0.00,,2013-09-23 14:43:00,
2013-09-23 09:52:00,56.0,-99.9,-100.00,SE,145,6.0,12.0,-999,0.00,,,0.00,,2013-09-23 14:52:00,
2013-09-23 11:00:00,68.0,-99.9,-100.00,SSE,168,6.0,12.0,-999,0.00,,,0.00,,2013-09-23 16:00:00,
2013-09-23 11:53:00,68.0,-99.9,-100.00,SSE,168,6.0,12.0,-999,0.00,,,0.00,,2013-09-23 16:53:00,
2013-09-23 12:00:00,71.0,-99.9,-100.00,SSE,168,7.0,19.0,-999,0.00,,,0.00,,2013-09-23 17:00:00,
2013-09-23 12:42:00,71.0,-99.9,-100.00,SSE,168,7.0,19.0,-999,0.00,,,0.00,,2013-09-23 17:42:00,
2013-09-23 12:52:00,71.0,-99.9,-100.00,SSE,168,7.0,19.0,-999,0.00,,,0.00,,2013-09-23 17:52:00,
2013-09-23 13:00:00,72.0,-99.9,-100.00,SSE,164,8.0,17.0,-999,0.00,,,0.00,,2013-09-23 18:00:00,
2013-09-23 13:42:00,72.0,-99.9,-100.00,SSE,164,8.0,17.0,-999,0.00,,,0.00,,2013-09-23 18:42:00,
2013-09-23 13:52:00,72.0,-99.9,-100.00,SSE,164,8.0,17.0,-999,0.00,,,0.00,,2013-09-23 18:52:00,
2013-09-23 14:00:00,74.0,-99.9,-100.00,SSE,166,8.0,14.0,-999,0.00,,,0.00,,2013-09-23 19:00:00,
2013-09-23 14:42:00,74.0,-99.9,-100.00,SSE,166,8.0,14.0,-999,0.00,,,0.00,,2013-09-23 19:42:00,
2013-09-23 14:53:00,74.0,-99.9,-100.00,SSE,166,8.0,14.0,-999,0.00,,,0.00,,2013-09-23 19:53:00,
2013-09-23 15:00:00,75.0,-99.9,-100.00,SSE,153,8.0,16.0,-999,0.00,,,0.00,,2013-09-23 20:00:00,
2013-09-23 15:42:00,75.0,-99.9,-100.00,SSE,153,8.0,16.0,-999,0.00,,,0.00,,2013-09-23 20:42:00,
2013-09-23 15:52:00,75.0,-99.9,-100.00,SSE,153,8.0,16.0,-999,0.00,,,0.00,,2013-09-23 20:52:00,
2013-09-23 16:00:00,75.0,-99.9,-100.00,SE,143,11.0,20.0,-999,0.00,,,0.00,,2013-09-23 21:00:00,
2013-09-23 16:44:00,75.0,-99.9,-100.00,SE,143,11.0,20.0,-999,0.00,,,0.00,,2013-09-23 21:44:00,
2013-09-23 16:54:00,75.0,-99.9,-100.00,SE,143,11.0,20.0,-999,0.00,,,0.00,,2013-09-23 21:54:00,
2013-09-23 17:00:00,75.0,-99.9,-100.00,SSE,149,11.0,19.0,-999,0.00,,,0.00,,2013-09-23 22:00:00,
2013-09-23 17:43:00,75.0,-99.9,-100.00,SSE,149,11.0,19.0,-999,0.00,,,0.00,,2013-09-23 22:43:00,
2013-09-23 17:54:00,75.0,-99.9,-100.00,SSE,149,11.0,19.0,-999,0.00,,,0.00,,2013-09-23 22:54:00,
2013-09-23 18:00:00,73.0,-99.9,-100.00,SE,146,10.0,18.0,-999,0.00,,,0.00,,2013-09-23 23:00:00,
2013-09-23 18:42:00,73.0,-99.9,-100.00,SE,146,10.0,18.0,-999,0.00,,,0.00,,2013-09-23 23:42:00,
2013-09-23 18:54:00,73.0,-99.9,-100.00,SE,146,10.0,18.0,-999,0.00,,,0.00,,2013-09-23 23:54:00,
2013-09-23 19:00:00,70.0,-99.9,-100.00,SSE,149,8.0,13.0,-999,0.00,,,0.00,,2013-09-24 00:00:00,
2013-09-23 19:43:00,70.0,-99.9,-100.00,SSE,149,8.0,13.0,-999,0.00,,,0.00,,2013-09-24 00:43:00,
2013-09-23 19:52:00,70.0,-99.9,-100.00,SSE,149,8.0,13.0,-999,0.00,,,0.00,,2013-09-24 00:52:00,
2013-09-23 21:00:00,63.0,-99.9,-100.00,SE,141,4.0,8.0,-999,0.00,,,0.00,,2013-09-24 02:00:00,
2013-09-23 21:43:00,63.0,-99.9,-100.00,SE,141,4.0,8.0,-999,0.00,,,0.00,,2013-09-24 02:43:00,
2013-09-23 21:52:00,63.0,-99.9,-100.00,SE,141,4.0,8.0,-999,0.00,,,0.00,,2013-09-24 02:52:00,
2013-09-23 22:00:00,61.0,-99.9,-100.00,SE,137,5.0,8.0,-999,0.00,,,0.00,,2013-09-24 03:00:00,
2013-09-23 22:45:00,61.0,-99.9,-100.00,SE,137,5.0,8.0,-999,0.00,,,0.00,,2013-09-24 03:45:00,
2013-09-23 22:55:00,61.0,-99.9,-100.00,SE,137,5.0,8.0,-999,0.00,,,0.00,,2013-09-24 03:55:00,
2013-09-23 23:00:00,59.0,-99.9,-100.00,SSE,148,6.0,11.0,-999,0.00,,,0.00,,2013-09-24 04:00:00,
2013-09-23 23:44:00,59.0,-99.9,-100.00,SSE,148,6.0,11.0,-999,0.00,,,0.00,,2013-09-24 04:44:00,
2013-09-23 23:54:00,59.0,-99.9,-100.00,SSE,148,6.0,11.0,-999,0.00,,,0.00,,2013-09-24 04:54:00,